Location: Cz?stochówka
(50.8142°N, 19.0915°E)
Time: 20:48:27
(UTC+00:00)

SKYMED 3 - Pass Details

Date: 13 January 2026
Orbit: 538 x 559 km, 97.8° (Epoch: 13 February)

Event Time Altitude Azimuth Distance (km) Brightness Sun altitude
Rises 05:51:33 0° 168° (SSE) 2,690 8.4 -7.7°
Reaches altitude 10° 05:53:40 10° 170° (S) 1,800 7.5 -7.4°
Maximum altitude 05:57:33 77° 256° (WSW) 560 4.3 -6.8°
Drops below altitude 10° 06:01:28 10° 343° (NNW) 1,810 6.6 -6.2°
Sets 06:03:35 0° 345° (NNW) 2,706 7.5 -5.9°
